Location: Olsztyn
(53.7767°N, 20.4765°E)
Time: 17:28:58
(UTC+02:00)

A-11 Canister half - Pass Details

Date: 25 January 2022
Orbit: 1513 x 1686 km, 47.2° (Epoch: 24 May)

Event Time Altitude Azimuth Distance (km) Brightness Sun altitude
Rises 18:17:12 0° 248° (WSW) 4,733 13.0 -19.0°
Reaches altitude 10° 18:20:21 10° 245° (WSW) 3,730 12.1 -19.5°
Maximum altitude 18:29:24 57° 170° (S) 1,758 9.2 -20.8°
Enters shadow 18:34:08 30° 107° (ESE) 2,456 9.5 -21.5°
